KQ4KX Weather Reports


time (UTC)temp
C
wind
direction
speed
KPH
gust
KPH
rain 1hr
cm
rain 24hr
cm
rain mn
cm
humidity
%
barometer
mb
20260904000913 25 128 1.6 9.7 0.36 0.58 0.58 99 1014.4
20260904000734 25 128 1.6 9.7 0.36 0.58 0.58 99 1014.4
20260903235734 25 107 4.8 12.9 0.41 0.58 0.58 99 1014.4
20260903235436 26 103 8.0 14.5 0.38 0.56 0.56 98 1014.3
20260903235205 26 103 8.0 14.5 0.38 0.56 0.56 98 1014.3
20260903234704 26 102 8.0 14.5 0.38 0.56 0.56 98 1014.4
20260903234205 26 102 8.0 11.3 0.38 0.56 0.56 98 1014.3
20260903232810 26 105 4.8 11.3 0.28 0.46 0.46 98 1014.3
20260903232605 26 105 4.8 11.3 0.28 0.46 0.46 98 1014.3
20260903232402 26 112 1.6 6.4 0.20 0.38 0.38 97 1014.3
20260903232104 26 112 1.6 6.4 0.20 0.38 0.38 97 1014.3
20260903231604 26 146 0.0 4.8 0.15 0.33 0.33 97 1014.3
20260903231036 26 177 0.0 3.2 0.08 0.25 0.25 96 1014.3
20260903225434 26 237 1.6 1.6 0.00 0.18 0.18 96 1014.3
20260903224334 26 230 1.6 6.4 0.00 0.18 0.18 96 1014.0
20260903223234 26 239 3.2 6.4 0.00 0.18 0.18 95 1013.8
20260903222704 26 231 3.2 8.0 0.00 0.18 0.18 94 1013.8
20260903222134 26 244 3.2 8.0 0.00 0.18 0.18 92 1013.9
20260903221634 27 256 3.2 8.0 0.00 0.18 0.18 91 1013.9
20260903221104 27 237 3.2 8.0 0.00 0.18 0.18 90 1013.9
20260903220035 28 175 3.2 11.3 0.00 0.18 0.18 89 1013.7
20260903214739 28 104 12.9 25.7 0.03 0.18 0.18 89 1013.5
20260903214504 28 104 12.9 25.7 0.03 0.18 0.18 89 1013.5
20260903213934 28 103 16.1 25.7 0.03 0.18 0.18 91 1013.3
20260903213404 28 102 17.7 27.4 0.03 0.18 0.18 90 1013.2
20260903212834 28 99 19.3 29.0 0.05 0.18 0.18 89 1013.0
20260903212335 29 100 19.3 29.0 0.18 0.18 0.18 89 1013.0
20260903211032 30 96 9.7 32.2 0.18 0.18 0.18 87 1012.9
20260903210734 30 96 9.7 32.2 0.18 0.18 0.18 87 1012.9
20260903210204 30 81 4.8 14.5 0.18 0.18 0.18 86 1012.8
20260903210030 30 64 3.2 6.4 0.18 0.18 0.18 87 1012.6
20260903205704 30 64 3.2 6.4 0.18 0.18 0.18 87 1012.6
20260903204704 30 65 1.6 4.8 0.18 0.18 0.18 87 1012.4
20260903204134 30 84 6.4 17.7 0.15 0.15 0.15 87 1012.5
20260903203634 30 91 12.9 22.5 0.15 0.15 0.15 87 1012.8
20260903203134 31 97 14.5 22.5 0.15 0.15 0.15 82 1013.0
20260903202604 32 93 8.0 19.3 0.08 0.08 0.08 85 1012.9
20260903201036 31 56 3.2 6.4 0.00 0.00 0.00 80 1012.7
20260903195434 31 58 3.2 6.4 0.00 0.00 0.00 82 1013.2
20260903194934 31 53 3.2 6.4 0.00 0.00 0.00 83 1013.2
20260903194804 31 52 3.2 6.4 0.00 0.00 0.00 82 1013.3
20260903194434 31 52 3.2 6.4 0.00 0.00 0.00 82 1013.3
20260903193934 31 54 3.2 12.9 0.00 0.00 0.00 81 1013.4
20260903193712 31 71 4.8 12.9 0.00 0.00 0.00 82 1013.5
20260903193436 31 71 4.8 12.9 0.00 0.00 0.00 82 1013.5
20260903192404 31 79 4.8 14.5 0.00 0.00 0.00 80 1013.6
20260903191404 31 77 4.8 11.3 0.00 0.00 0.00 80 1013.8
20260903190834 31 80 4.8 11.3 0.00 0.00 0.00 81 1013.9
20260903185234 31 80 6.4 16.1 0.00 0.00 0.00 81 1013.8
20260903184704 31 80 4.8 16.1 0.00 0.00 0.00 82 1013.8
20260903184134 31 59 3.2 9.7 0.00 0.00 0.00 84 1013.6
20260903183635 30 55 3.2 9.7 0.00 0.00 0.00 85 1013.7
20260903183104 30 60 4.8 8.0 0.00 0.00 0.00 83 1013.8
20260903182604 31 58 4.8 8.0 0.00 0.00 0.00 81 1013.9
20260903182035 31 71 4.8 12.9 0.00 0.00 0.00 80 1013.9
20260903181035 32 101 3.2 9.7 0.00 0.00 0.00 75 1014.0
20260903180301 33 92 6.4 11.3 0.00 0.00 0.00 73 1014.2
20260903180005 33 92 6.4 11.3 0.00 0.00 0.00 73 1014.2
20260903175837 32 89 6.4 14.5 0.00 0.00 0.00 73 1014.3
20260903175505 32 89 6.4 14.5 0.00 0.00 0.00 73 1014.3
20260903174934 33 94 6.4 14.5 0.00 0.00 0.00 73 1014.4
20260903174434 33 102 6.4 11.3 0.00 0.00 0.00 71 1014.5
20260903173934 33 102 4.8 11.3 0.00 0.00 0.00 74 1014.5
20260903173404 33 98 3.2 6.4 0.00 0.00 0.00 71 1014.5
20260903172716 33 123 3.2 9.7 0.00 0.00 0.00 74 1014.8
20260903172404 33 123 3.2 9.7 0.00 0.00 0.00 74 1014.8
20260903171641 32 106 3.2 4.8 0.00 0.00 0.00 75 1014.8
20260903171404 32 106 3.2 4.8 0.00 0.00 0.00 75 1014.8
20260903170834 32 171 3.2 9.7 0.00 0.00 0.00 73 1014.8
20260903164234 32 107 4.8 12.9 0.00 0.00 0.00 75 1015.1
20260903163704 32 108 4.8 12.9 0.00 0.00 0.00 77 1015.2
20260903162634 31 156 3.2 9.7 0.00 0.00 0.00 77 1015.3
20260903161604 32 131 3.2 11.3 0.00 0.00 0.00 76 1015.3
20260903161352 31 155 3.2 9.7 0.00 0.00 0.00 78 1015.3
20260903161035 31 155 3.2 9.7 0.00 0.00 0.00 78 1015.3
20260903155504 31 126 4.8 9.7 0.00 0.00 0.00 77 1015.4
20260903155004 31 128 3.2 9.7 0.00 0.00 0.00 79 1015.4
20260903154504 31 148 4.8 9.7 0.00 0.00 0.00 76 1015.5
20260903154342 32 115 3.2 11.3 0.00 0.00 0.00 79 1015.5
20260903153934 32 115 3.2 11.3 0.00 0.00 0.00 79 1015.5
20260903153235 31 119 3.2 9.7 0.00 0.00 0.00 80 1015.6
20260903152934 31 119 3.2 9.7 0.00 0.00 0.00 80 1015.6
20260903152434 30 130 3.2 11.3 0.00 0.00 0.00 84 1015.5
20260903151404 30 143 4.8 11.3 0.00 0.00 0.00 81 1015.5
20260903150904 30 113 4.8 11.3 0.00 0.00 0.00 81 1015.6
20260903145306 29 154 3.2 9.7 0.00 0.00 0.00 86 1015.5
20260903144734 28 131 3.2 9.7 0.00 0.00 0.00 86 1015.7
20260903143134 28 139 3.2 8.0 0.00 0.00 0.00 87 1015.6
20260903142634 28 135 3.2 9.7 0.00 0.00 0.00 89 1015.5
20260903142105 28 164 3.2 9.7 0.00 0.00 0.00 88 1015.5
20260903141604 28 120 4.8 12.9 0.00 0.00 0.00 86 1015.5
20260903140813 28 124 1.6 9.7 0.00 0.00 0.00 89 1015.4
20260903140505 28 124 1.6 9.7 0.00 0.00 0.00 89 1015.4
20260903135934 28 116 3.2 9.7 0.00 0.00 0.00 90 1015.4
20260903135434 28 104 4.8 12.9 0.00 0.00 0.00 89 1015.4
20260903134434 28 104 3.2 9.7 0.00 0.00 0.00 94 1015.4
20260903133934 27 98 1.6 4.8 0.00 0.00 0.00 94 1015.3
20260903132334 27 114 1.6 4.8 0.00 0.00 0.00 96 1015.2
20260903131804 27 111 3.2 4.8 0.00 0.00 0.00 94 1015.2
20260903131235 27 100 3.2 6.4 0.00 0.00 0.00 97 1015.3
20260903130734 27 101 1.6 6.4 0.00 0.00 0.00 96 1015.3
20260903130234 27 104 3.2 6.4 0.00 0.00 0.00 97 1015.3
20260903125946 27 101 4.8 9.7 0.00 0.00 0.00 98 1015.2
20260903125705 27 101 4.8 9.7 0.00 0.00 0.00 98 1015.2
20260903124704 26 90 3.2 4.8 0.00 0.00 0.00 97 1015.2
20260903123843 26 96 4.8 11.3 0.00 0.00 0.00 98 1015.2
20260903123634 26 96 4.8 11.3 0.00 0.00 0.00 98 1015.2
20260903123105 26 98 6.4 12.9 0.00 0.00 0.00 98 1015.1
20260903122007 26 86 3.2 12.9 0.00 0.00 0.00 99 1015.1
20260903120714 26 88 1.6 4.8 0.00 0.00 0.00 99 1014.8
20260903120504 26 88 1.6 4.8 0.00 0.00 0.00 99 1014.8
20260903115434 26 82 3.2 6.4 0.00 0.00 0.00 99 1014.8
20260903114935 26 79 3.2 4.8 0.00 0.00 0.00 99 1014.7
20260903114434 26 79 1.6 4.8 0.00 0.00 0.00 100 1014.5
20260903113905 26 76 1.6 4.8 0.00 0.00 0.00 100 1014.4
20260903113334 26 65 1.6 4.8 0.00 0.00 0.00 99 1014.4
20260903112834 26 72 1.6 4.8 0.00 0.00 0.00 100 1014.3
20260903112334 26 80 1.6 4.8 0.00 0.00 0.00 100 1014.2
20260903111804 26 81 1.6 4.8 0.00 0.00 0.00 100 1014.1
20260903110734 25 79 3.2 6.4 0.00 0.00 0.00 100 1013.9
20260903105937 26 78 3.2 6.4 0.00 0.00 0.00 100 1014.0
20260903105704 26 78 3.2 6.4 0.00 0.00 0.00 100 1014.0
20260903104840 26 79 3.2 11.3 0.00 0.00 0.00 100 1013.8
20260903104634 26 79 3.2 11.3 0.00 0.00 0.00 100 1013.8
20260903104338 26 83 3.2 11.3 0.00 0.00 0.00 100 1013.7
20260903104134 26 83 3.2 11.3 0.00 0.00 0.00 100 1013.7
20260903103604 26 80 3.2 9.7 0.00 0.00 0.00 100 1013.6
20260903102036 26 83 4.8 12.9 0.00 0.00 0.00 100 1013.6
20260903100934 26 90 4.8 9.7 0.00 0.00 0.00 99 1013.8
20260903100718 26 89 4.8 11.3 0.00 0.00 0.00 99 1013.7
20260903100434 26 89 4.8 11.3 0.00 0.00 0.00 99 1013.7
20260903095452 26 79 3.2 12.9 0.00 0.00 0.00 99 1013.7
20260903095224 26 79 3.2 12.9 0.00 0.00 0.00 99 1013.7
20260903094834 26 79 3.2 12.9 0.00 0.00 0.00 99 1013.7
20260903093804 26 92 6.4 12.9 0.00 0.00 0.00 99 1013.8
20260903093702 26 80 3.2 12.9 0.00 0.00 0.00 97 1014.1
20260903093657 26 85 3.2 9.7 0.00 0.00 0.00 97 1014.2
20260903093655 26 97 4.8 9.7 0.00 0.00 0.00 97 1014.1
20260903093648 26 102 6.4 11.3 0.00 0.00 0.00 97 1014.2
20260903093234 26 95 6.4 12.9 0.00 0.00 0.00 99 1013.8
20260903092514 26 90 6.4 12.9 0.00 0.00 0.00 99 1013.7
20260903092205 26 90 6.4 12.9 0.00 0.00 0.00 99 1013.7
20260903090947 26 89 6.4 12.9 0.00 0.00 0.00 99 1013.6
20260903090634 26 89 6.4 12.9 0.00 0.00 0.00 99 1013.6
20260903090351 26 90 6.4 12.9 0.00 0.00 0.00 99 1013.6
20260903090104 26 90 6.4 12.9 0.00 0.00 0.00 99 1013.6
20260903085603 26 90 4.8 11.3 0.00 0.00 0.00 99 1013.5
20260903084222 25 105 3.2 6.4 0.00 0.00 0.00 99 1013.5
20260903083934 25 105 3.2 6.4 0.00 0.00 0.00 99 1013.5
20260903083151 26 97 4.8 9.7 0.00 0.00 0.00 99 1013.5
20260903082904 26 97 4.8 9.7 0.00 0.00 0.00 99 1013.5
20260903082630 26 92 4.8 11.3 0.00 0.00 0.00 99 1013.4
20260903082404 26 92 4.8 11.3 0.00 0.00 0.00 99 1013.4
20260903082126 26 86 3.2 11.3 0.00 0.00 0.00 99 1013.5
20260903081904 26 86 3.2 11.3 0.00 0.00 0.00 99 1013.5
20260903081334 26 89 3.2 6.4 0.00 0.00 0.00 99 1013.5
20260903081040 26 90 3.2 6.4 0.00 0.00 0.00 99 1013.5
20260903080804 26 90 3.2 6.4 0.00 0.00 0.00 99 1013.5
20260903080036 26 96 4.8 11.3 0.00 0.00 0.00 99 1013.7
20260903075734 26 96 4.8 11.3 0.00 0.00 0.00 99 1013.7
20260903075508 26 87 3.2 11.3 0.00 0.00 0.00 99 1013.8
20260903075234 26 87 3.2 11.3 0.00 0.00 0.00 99 1013.8
20260903075004 26 84 3.2 11.3 0.00 0.00 0.00 99 1013.8
20260903074704 26 84 3.2 11.3 0.00 0.00 0.00 99 1013.8
20260903074446 26 81 1.6 4.8 0.00 0.00 0.00 99 1013.8
20260903074134 26 81 1.6 4.8 0.00 0.00 0.00 99 1013.8
20260903073634 26 80 1.6 3.2 0.00 0.00 0.00 98 1013.8
20260903072604 26 90 1.6 4.8 0.00 0.00 0.00 98 1014.0
20260903070706 26 84 1.6 4.8 0.00 0.00 0.00 98 1013.9
20260903070404 26 84 1.6 4.8 0.00 0.00 0.00 98 1013.9
20260903065646 26 81 1.6 4.8 0.00 0.00 0.00 97 1014.2
20260903065334 26 81 1.6 4.8 0.00 0.00 0.00 97 1014.2
20260903064834 26 81 3.2 6.4 0.00 0.00 0.00 97 1014.2
20260903064334 26 87 3.2 9.7 0.00 0.00 0.00 97 1014.2
20260903063804 26 88 3.2 9.7 0.00 0.00 0.00 97 1014.1
20260903063447 26 80 3.2 12.9 0.00 0.00 0.00 97 1014.1
20260903063235 26 80 3.2 12.9 0.00 0.00 0.00 97 1014.1
20260903061829 26 85 3.2 9.7 0.00 0.00 0.00 97 1014.2
20260903061634 26 85 3.2 9.7 0.00 0.00 0.00 97 1014.2
20260903061104 26 97 4.8 9.7 0.00 0.00 0.00 97 1014.1
20260903060604 26 102 6.4 11.3 0.00 0.00 0.00 97 1014.2
20260903054740 25 23 1.6 3.2 0.00 0.00 0.00 99 1015.5
20260903054734 24 98 0.0 1.6 0.00 0.00 0.00 99 1016.2
20260903054732 33 98 8.0 17.7 0.00 0.84 0.00 71 1017.0
20260903052934 26 106 8.0 14.5 0.00 0.00 0.00 97 1014.5
20260903052807 26 104 8.0 14.5 0.00 0.00 0.00 96 1014.6
20260903052403 26 104 8.0 14.5 0.00 0.00 0.00 96 1014.6
20260903051646 26 99 8.0 14.5 0.00 0.00 0.00 96 1014.7
20260903051334 26 99 8.0 14.5 0.00 0.00 0.00 96 1014.7
20260903050804 26 100 8.0 14.5 0.00 0.00 0.00 96 1014.8
20260903050234 26 98 9.7 14.5 0.00 0.00 0.00 96 1014.9
20260903045704 26 96 11.3 16.1 0.00 0.00 0.00 96 1014.9
20260903044633 26 102 9.7 16.1 0.00 0.00 0.00 96 1015.0
20260903044134 26 102 9.7 16.1 0.00 0.00 0.00 96 1015.0
20260903043922 26 101 9.7 14.5 0.00 0.00 0.00 96 1015.1
20260903043634 26 101 9.7 14.5 0.00 0.00 0.00 96 1015.1
20260903043134 26 103 9.7 16.1 0.00 0.00 0.00 96 1015.1
20260903042828 26 102 11.3 17.7 0.00 0.00 0.00 96 1015.1
20260903042633 26 102 11.3 17.7 0.00 0.00 0.00 96 1015.1
20260903041035 27 100 8.0 14.5 0.00 0.00 0.00 95 1015.3
20260903035720 27 102 11.3 17.7 0.00 0.00 0.00 96 1015.1
20260903035506 27 102 11.3 17.7 0.00 0.00 0.00 96 1015.1
20260903034711 27 98 12.9 17.7 0.00 0.00 0.00 95 1015.0
20260903034434 27 98 12.9 17.7 0.00 0.00 0.00 95 1015.0
20260903033704 27 92 9.7 17.7 0.00 0.00 0.00 95 1015.1
20260903033334 27 92 9.7 17.7 0.00 0.00 0.00 95 1015.1
20260903032234 26 90 8.0 14.5 0.00 0.00 0.00 95 1015.3
20260903031950 26 94 8.0 14.5 0.00 0.00 0.00 96 1015.2
20260903031704 26 94 8.0 14.5 0.00 0.00 0.00 96 1015.2
20260903030634 26 84 4.8 12.9 0.00 0.00 0.00 96 1015.2
20260903030447 26 83 4.8 11.3 0.00 0.00 0.00 96 1015.4
20260903030134 26 83 4.8 11.3 0.00 0.00 0.00 96 1015.4
20260903023329 26 54 0.0 3.2 0.00 0.00 0.00 97 1015.3
20260903023104 26 54 0.0 3.2 0.00 0.00 0.00 97 1015.3
20260903020434 26 54 1.6 3.2 0.00 0.00 0.00 97 1015.2
20260903015711 26 51 1.6 3.2 0.00 0.00 0.00 97 1015.3
20260903015434 26 51 1.6 3.2 0.00 0.00 0.00 97 1015.3
20260903014713 26 46 1.6 3.2 0.00 0.00 0.00 96 1015.0
20260903014334 26 46 1.6 3.2 0.00 0.00 0.00 96 1015.0
20260903014114 26 46 1.6 3.2 0.00 0.00 0.00 96 1014.9
20260903013834 26 46 1.6 3.2 0.00 0.00 0.00 96 1014.9
20260903012956 26 45 1.6 4.8 0.00 0.00 0.00 96 1015.0
20260903012734 26 45 1.6 4.8 0.00 0.00 0.00 96 1015.0
20260903010922 26 85 1.6 1.6 0.00 0.00 0.00 94 1014.7
20260903010634 26 85 1.6 1.6 0.00 0.00 0.00 94 1014.7
20260903005825 26 66 1.6 3.2 0.00 0.00 0.00 94 1014.4
20260903005605 26 66 1.6 3.2 0.00 0.00 0.00 94 1014.4
20260903004357 26 29 1.6 4.8 0.00 0.00 0.00 94 1014.2
20260903003934 26 29 1.6 4.8 0.00 0.00 0.00 94 1014.2
20260903002834 26 40 1.6 4.8 0.00 0.00 0.00 94 1014.3
20260903002333 26 55 1.6 3.2 0.00 0.00 0.00 95 1014.3
20260903001834 26 74 1.6 4.8 0.00 0.00 0.00 95 1014.3